Regional Weather Roundup
Issued by NWS Albany, NY

Home | Current Version | Previous Version | Text Only | Print | Product List | Glossary On
Versions: 1 2 3 4 5 6 7 8 9 10 11 12 13 14 15 16 17 18 19 20 21 22 23 24 25 26 27 28 29 30 31 32 33 34 35 36 37 38 39 40 41 42 43 44 45 46 47 48 49 50
000
ASUS41 KALY 191210
RWRALY

NEW YORK STATE HOURLY WEATHER ROUNDUP
NATIONAL WEATHER SERVICE ALBANY NY
700 AM EST SUN NOV 19 2017

NOTE: "FAIR" INDICATES FEW OR NO CLOUDS BELOW 12,000 FEET WITH NO
SIGNIFICANT WEATHER AND/OR NO OBSTRUCTIONS TO VISIBILITY.

NYZ032-033-038>043-046>054-057>066-NYZ062>081-082-084-191300-
EAST


CITY           SKY/WX    TMP DP  RH WIND       PRES   REMARKS
ALBANY         CLOUDY    51  47  86 S17G26    29.10S
GLENS FALLS    CLOUDY    45  45 100 S5        29.06F FOG
POUGHKEEPSIE   CLOUDY    58  52  80 SW9       29.15F
NEWBURGH       CLOUDY    57  55  94 SW14      29.17R
MONTGOMERY     CLOUDY    54  52  93 SW12      29.15F
WHITE PLAINS   LGT RAIN  58  55  90 VRB7G18   29.20F
ISLIP          LGT RAIN  58  56  93 SW18G32   29.24F
NEW YORK CITY  LGT RAIN  58  53  84 SW20G35   29.22F
CENTRAL PARK   LGT RAIN  57  54  89 VRB6G17   29.24F
$$

NYZ005>009-017-018-044>046-055-056-191300-
CENTRAL


CITY           SKY/WX    TMP DP  RH WIND       PRES   REMARKS
FULTON         LGT SNOW  34  32  92 W17G28    29.33R FOG     WCI  23
SYRACUSE       LGT RAIN  36  35  96 W24G31    29.31R WCI  24
ROME           LGT RAIN  38  37  97 W22G32    29.23R FOG     WCI  27
ELMIRA         CLOUDY    39  33  79 W13G25    29.38R WCI  31
BINGHAMTON     FLURRIES  35  32  88 W16G28    29.30R WCI  25
MONTICELLO     LGT RAIN  49  46  90 W13G24    29.19R
$$

NYZ026>034-041>043-087-191300-
NORTH


CITY           SKY/WX    TMP DP  RH WIND       PRES   REMARKS
WATERTOWN      SNOW      32  32 100 W14G20    29.27R VSB 1/4 WCI  22
FORT DRUM      NOT AVBL
OGDENSBURG     LGT SNOW  33  32  98 NW10G18   29.18R VSB 3/4 WCI  24
MASSENA        LGT SNOW  33  33 100 NW15      29.15R VSB 3/4 WCI  23
SARANAC LAKE   RAIN      42  42 100 W6        28.99S FOG
PLATTSBURGH    CLOUDY    44  42  93 CALM      29.02F
$$

NYZ001>004-010>016-019>021-085-191300-
WEST


CITY           SKY/WX    TMP DP  RH WIND       PRES   REMARKS
NIAGARA FALLS  CLOUDY    39  30  70 NW20G31   29.51R WCI  29
BUFFALO        CLOUDY    37  31  78 NW13G28   29.50R WCI  29
DUNKIRK        CLOUDY    38  29  70 NW23G36   29.58R WCI  27
JAMESTOWN      LGT SNOW  34  30  86 NW18      29.55R FOG     WCI  23
WELLSVILLE     LGT SNOW  35  30  82 NW23G31   29.45R WCI  23
ROCHESTER      LGT SNOW  34  33  96 NW12G24   29.44R FOG     WCI  25
PENN YAN       LGT RAIN  36  29  75 W20G32    29.39R WCI  25
$$

             KEY
       WCI = WIND CHILL INDEX
       VSB = VISIBILITY
       HX  = HEAT INDEX
$$



USA.gov is the U.S. government's official web portal to all federal, state and local government web resources and services.